SUPERVIEW-1 04 (43100 NORAD) Tracking and Keplerian Element Data

This shows tracking and keplerian element data for the satellite.

Feedback or suggestion? Click here.




ElementValue
Catalog43100
NameSUPERVIEW-1 04
Epoch Orbit39253
Epoch Day35.14964635
Epoch Year2025
RAAN126.6475
Inclination97.3509
Eccentricity8.73E-05
Argument of Perigee294.7493
Mean Anonmoly65.3677
Mean Motion15.67407768
Decay Rate0.00117739
L11 43100U 18002B 25035.14964635 .00117739 00000+0 10784-2 0 9991
L22 43100 97.3509 126.6475 0000873 294.7493 65.3677 15.67407768392537



Live tracking and technical data element details for SUPERVIEW-1 04 (NORAD 43100). SUPERVIEW-1 04 can be tracked NOW for your location showing map with azimuth and elevation plus other details from your city location.







IsCatalogInMostPopularTable: catalog: 43100, numindb: 416
Update: records affected: 1



GetName: 43100 SUPERVIEW-1 04

Hit Count: updated at: Thu, 15 May 2025 19:04:30 GMT